Time,TemperatureF,DewpointF,PressureIn,WindDirection,WindDirectionDegrees,WindSpeedMPH,WindSpeedGustMPH,Humidity,HourlyPrecipIn,Conditions,Clouds,dailyrainin,SolarRadiationWatts/m^2,SoftwareType,DateUTC
2013-02-13 00:00:00,31.8,16.6,29.85,West,270,6.4,6.4,53,0.00,-SN,,0.00,0.0,WeatherDisplay:10.37,2013-02-13 05:00:00,
2013-02-13 00:05:00,31.8,16.6,29.85,West,270,8.1,8.1,53,0.00,-SN,,0.00,0.0,WeatherDisplay:10.37,2013-02-13 05:05:00,
2013-02-13 00:10:00,31.6,16.4,29.85,West,270,6.9,6.9,53,0.00,-SN,,0.00,0.0,WeatherDisplay:10.37,2013-02-13 05:10:00,
2013-02-13 00:15:00,31.6,16.4,29.85,WNW,292,5.8,5.8,53,0.00,-SN,,0.00,0.0,WeatherDisplay:10.37,2013-02-13 05:15:00,
2013-02-13 00:20:00,31.6,16.4,29.85,WNW,292,5.8,5.8,53,0.00,-SN,,0.00,0.0,WeatherDisplay:10.37,2013-02-13 05:20:00,
2013-02-13 00:25:00,31.5,16.3,29.85,West,270,5.6,5.6,53,0.00,-SN,,0.00,0.0,WeatherDisplay:10.37,2013-02-13 05:25:00,
2013-02-13 00:30:00,31.5,16.3,29.85,WNW,292,8.1,8.1,53,0.00,-SN,,0.00,0.0,WeatherDisplay:10.37,2013-02-13 05:30:00,
2013-02-13 00:35:00,31.5,16.3,29.85,WSW,248,4.6,4.6,53,0.00,-SN,,0.00,0.0,WeatherDisplay:10.37,2013-02-13 05:35:00,
2013-02-13 00:40:00,31.5,16.3,29.85,WNW,292,6.9,6.9,53,0.00,-SN,,0.00,0.0,WeatherDisplay:10.37,2013-02-13 05:40:00,
2013-02-13 00:45:00,31.3,17.0,29.85,West,270,4.6,4.6,55,0.00,-SN,,0.00,0.0,WeatherDisplay:10.37,2013-02-13 05:45:00,
2013-02-13 00:50:00,31.1,16.8,29.85,West,270,3.8,3.8,55,0.00,-SN,,0.00,0.0,WeatherDisplay:10.37,2013-02-13 05:50:00,
2013-02-13 00:55:00,31.1,16.8,29.85,WSW,248,8.1,8.1,55,0.00,-SN,,0.00,0.0,WeatherDisplay:10.37,2013-02-13 05:55:00,
2013-02-13 01:00:00,31.1,16.8,29.85,WNW,292,8.1,8.1,55,0.00,-SN,,0.00,0.0,WeatherDisplay:10.37,2013-02-13 06:00:00,
2013-02-13 01:05:00,30.9,17.9,29.85,West,270,6.9,6.9,58,0.00,-SN,,0.00,0.0,WeatherDisplay:10.37,2013-02-13 06:05:00,
2013-02-13 01:10:00,30.9,17.9,29.85,WSW,248,6.9,6.9,58,0.00,-SN,,0.00,0.0,WeatherDisplay:10.37,2013-02-13 06:10:00,
2013-02-13 01:15:00,30.7,17.7,29.85,WSW,248,6.2,6.2,58,0.00,-SN,,0.00,0.0,WeatherDisplay:10.37,2013-02-13 06:15:00,
2013-02-13 01:20:00,30.7,18.5,29.85,West,270,5.6,5.6,60,0.00,-SN,,0.00,0.0,WeatherDisplay:10.37,2013-02-13 06:20:00,
2013-02-13 01:25:00,30.6,18.3,29.85,WSW,248,5.8,5.8,60,0.00,-SN,,0.00,0.0,WeatherDisplay:10.37,2013-02-13 06:25:00,
2013-02-13 01:30:00,30.6,18.3,29.85,WSW,248,4.6,4.6,60,0.00,-SN,,0.00,0.0,WeatherDisplay:10.37,2013-02-13 06:30:00,
2013-02-13 01:35:00,30.4,18.5,29.85,WSW,248,6.0,6.0,61,0.00,-SN,,0.00,0.0,WeatherDisplay:10.37,2013-02-13 06:35:00,
2013-02-13 01:40:00,30.4,18.5,29.85,WSW,248,5.8,5.8,61,0.00,-SN,,0.00,0.0,WeatherDisplay:10.37,2013-02-13 06:40:00,
2013-02-13 01:45:00,30.4,18.5,29.85,WSW,248,5.9,5.9,61,0.00,-SN,,0.00,0.0,WeatherDisplay:10.37,2013-02-13 06:45:00,
2013-02-13 01:50:00,30.2,18.7,29.85,West,270,6.9,6.9,62,0.00,-SN,,0.00,0.0,WeatherDisplay:10.37,2013-02-13 06:50:00,
2013-02-13 01:55:00,30.2,18.7,29.85,West,270,5.8,5.8,62,0.00,-SN,,0.00,0.0,WeatherDisplay:10.37,2013-02-13 06:55:00,
2013-02-13 02:00:00,30.2,18.7,29.85,West,270,5.8,5.8,62,0.00,-SN,,0.00,0.0,WeatherDisplay:10.37,2013-02-13 07:00:00,
2013-02-13 02:05:00,30.2,18.7,29.85,WSW,248,5.8,5.8,62,0.00,-SN,,0.00,0.0,WeatherDisplay:10.37,2013-02-13 07:05:00,
2013-02-13 02:11:00,30.2,18.7,29.85,West,270,5.8,5.8,62,0.00,-SN,,0.00,0.0,WeatherDisplay:10.37,2013-02-13 07:11:00,
2013-02-13 02:16:00,30.0,18.6,29.85,WNW,292,5.6,5.6,62,0.00,-SN,,0.00,0.0,WeatherDisplay:10.37,2013-02-13 07:16:00,
2013-02-13 02:21:00,30.0,18.6,29.85,West,270,3.6,3.6,62,0.00,-SN,,0.00,0.0,WeatherDisplay:10.37,2013-02-13 07:21:00,
2013-02-13 02:26:00,30.0,18.6,29.85,WSW,248,3.3,3.3,62,0.00,-SN,,0.00,0.0,WeatherDisplay:10.37,2013-02-13 07:26:00,
2013-02-13 02:31:00,29.8,18.4,29.85,WSW,248,2.3,2.4,62,0.00,-SN,,0.00,0.0,WeatherDisplay:10.37,2013-02-13 07:31:00,
2013-02-13 02:36:00,29.8,18.4,29.85,WSW,248,0.0,0.0,62,0.00,-SN,,0.00,0.0,WeatherDisplay:10.37,2013-02-13 07:36:00,
2013-02-13 02:41:00,29.8,18.4,29.85,WSW,248,0.0,0.0,62,0.00,-SN,,0.00,0.0,WeatherDisplay:10.37,2013-02-13 07:41:00,
2013-02-13 02:46:00,29.8,18.4,29.85,WSW,248,0.0,0.0,62,0.00,-SN,,0.00,0.0,WeatherDisplay:10.37,2013-02-13 07:46:00,
2013-02-13 02:51:00,29.7,18.2,29.85,WSW,248,0.0,0.0,62,0.00,-SN,,0.00,0.0,WeatherDisplay:10.37,2013-02-13 07:51:00,
2013-02-13 02:56:00,29.7,18.2,29.85,WSW,248,0.0,0.0,62,0.00,-SN,,0.00,0.0,WeatherDisplay:10.37,2013-02-13 07:56:00,
2013-02-13 03:01:00,29.7,18.2,29.85,SSW,202,1.1,0.0,62,0.00,-SN,,0.00,0.0,WeatherDisplay:10.37,2013-02-13 08:01:00,
2013-02-13 03:06:00,29.7,18.2,29.85,SW,225,0.0,0.0,62,0.00,-SN,,0.00,0.0,WeatherDisplay:10.37,2013-02-13 08:06:00,
2013-02-13 03:11:00,29.5,18.1,29.83,SW,225,0.0,0.0,62,0.00,-SN,,0.00,0.0,WeatherDisplay:10.37,2013-02-13 08:11:00,
2013-02-13 03:16:00,29.5,18.1,29.83,SSW,202,0.0,0.0,62,0.00,-SN,,0.00,0.0,WeatherDisplay:10.37,2013-02-13 08:16:00,
2013-02-13 03:21:00,29.5,18.1,29.83,SSW,202,0.0,0.0,62,0.00,-SN,,0.00,0.0,WeatherDisplay:10.37,2013-02-13 08:21:00,
2013-02-13 03:26:00,29.3,17.9,29.83,SSW,202,0.0,0.0,62,0.00,-SN,,0.00,0.0,WeatherDisplay:10.37,2013-02-13 08:26:00,
2013-02-13 03:31:00,29.3,17.9,29.83,SSW,202,0.0,0.0,62,0.00,-SN,,0.00,0.0,WeatherDisplay:10.37,2013-02-13 08:31:00,
2013-02-13 03:36:00,29.3,17.9,29.83,SSW,202,0.0,0.0,62,0.00,-SN,,0.00,0.0,WeatherDisplay:10.37,2013-02-13 08:36:00,
2013-02-13 03:41:00,29.3,17.9,29.83,SSW,202,0.0,0.0,62,0.00,-SN,,0.00,0.0,WeatherDisplay:10.37,2013-02-13 08:41:00,
2013-02-13 03:46:00,29.1,17.7,29.83,SSW,202,0.0,0.0,62,0.00,-SN,,0.00,0.0,WeatherDisplay:10.37,2013-02-13 08:46:00,
2013-02-13 03:51:00,29.1,17.7,29.83,SSW,202,0.0,0.0,62,0.00,-SN,,0.00,0.0,WeatherDisplay:10.37,2013-02-13 08:51:00,
2013-02-13 03:56:00,29.1,17.7,29.83,SSE,158,0.0,0.0,62,0.00,-SN,,0.00,0.0,WeatherDisplay:10.37,2013-02-13 08:56:00,
2013-02-13 04:01:00,29.1,17.7,29.83,SSE,158,0.0,0.0,62,0.00,OVC,,0.00,0.0,WeatherDisplay:10.37,2013-02-13 09:01:00,
2013-02-13 04:06:00,29.1,17.7,29.83,SSE,158,0.0,0.0,62,0.00,OVC,,0.00,0.0,WeatherDisplay:10.37,2013-02-13 09:06:00,
2013-02-13 04:11:00,29.1,17.7,29.83,SSE,158,0.0,0.0,62,0.00,OVC,,0.00,0.0,WeatherDisplay:10.37,2013-02-13 09:11:00,
2013-02-13 04:16:00,29.1,17.7,29.83,SSE,158,0.0,0.0,62,0.00,OVC,,0.00,0.0,WeatherDisplay:10.37,2013-02-13 09:16:00,
2013-02-13 04:21:00,29.1,17.7,29.83,SSE,158,2.3,0.0,62,0.00,OVC,,0.00,0.0,WeatherDisplay:10.37,2013-02-13 09:21:00,
2013-02-13 04:26:00,29.3,17.9,29.83,SSE,158,0.0,0.0,62,0.00,OVC,,0.00,0.0,WeatherDisplay:10.37,2013-02-13 09:26:00,
2013-02-13 04:31:00,29.3,17.9,29.83,SSE,158,0.0,0.0,62,0.00,OVC,,0.00,0.0,WeatherDisplay:10.37,2013-02-13 09:31:00,
2013-02-13 04:36:00,29.5,18.1,29.83,SSW,202,0.0,0.0,62,0.00,OVC,,0.00,0.0,WeatherDisplay:10.37,2013-02-13 09:36:00,
2013-02-13 04:41:00,29.5,18.1,29.83,SSW,202,1.6,1.6,62,0.00,OVC,,0.00,0.0,WeatherDisplay:10.37,2013-02-13 09:41:00,
2013-02-13 04:46:00,29.7,18.2,29.83,SW,225,4.6,4.6,62,0.00,OVC,,0.00,0.0,WeatherDisplay:10.37,2013-02-13 09:46:00,
2013-02-13 04:51:00,29.7,18.2,29.83,WSW,248,4.6,4.6,62,0.00,OVC,,0.00,0.0,WeatherDisplay:10.37,2013-02-13 09:51:00,
2013-02-13 04:56:00,29.8,18.4,29.80,SW,225,5.8,5.8,62,0.00,OVC,,0.00,0.0,WeatherDisplay:10.37,2013-02-13 09:56:00,
2013-02-13 05:01:00,29.8,18.0,29.80,West,270,4.6,4.6,61,0.00,OVC,,0.00,0.0,WeatherDisplay:10.37,2013-02-13 10:01:00,
2013-02-13 05:06:00,29.8,18.0,29.80,WSW,248,5.8,5.8,61,0.00,OVC,,0.00,0.0,WeatherDisplay:10.37,2013-02-13 10:06:00,
2013-02-13 05:11:00,29.8,18.0,29.80,SW,225,2.3,2.3,61,0.00,OVC,,0.00,0.0,WeatherDisplay:10.37,2013-02-13 10:11:00,
2013-02-13 05:16:00,29.8,18.0,29.80,WSW,248,4.3,4.3,61,0.00,OVC,,0.00,0.0,WeatherDisplay:10.37,2013-02-13 10:16:00,
2013-02-13 05:21:00,29.8,18.0,29.80,SSW,202,3.5,3.5,61,0.00,OVC,,0.00,0.0,WeatherDisplay:10.37,2013-02-13 10:21:00,
2013-02-13 05:26:00,30.0,18.2,29.83,SSW,202,2.3,2.9,61,0.00,OVC,,0.00,0.0,WeatherDisplay:10.37,2013-02-13 10:26:00,
2013-02-13 05:31:00,29.8,16.8,29.83,SW,225,1.1,0.0,58,0.00,OVC,,0.00,0.0,WeatherDisplay:10.37,2013-02-13 10:31:00,
2013-02-13 05:36:00,29.8,18.0,29.83,SSW,202,0.0,0.0,61,0.00,OVC,,0.00,0.0,WeatherDisplay:10.37,2013-02-13 10:36:00,
2013-02-13 05:41:00,29.7,17.8,29.85,SW,225,0.0,0.0,61,0.00,OVC,,0.00,0.0,WeatherDisplay:10.37,2013-02-13 10:41:00,
2013-02-13 05:46:00,29.7,17.8,29.85,West,270,3.5,3.5,61,0.00,OVC,,0.00,0.0,WeatherDisplay:10.37,2013-02-13 10:46:00,
2013-02-13 05:51:00,29.7,17.8,29.85,WSW,248,0.0,0.0,61,0.00,OVC,,0.00,0.0,WeatherDisplay:10.37,2013-02-13 10:51:00,
2013-02-13 05:56:00,29.5,17.7,29.83,WSW,248,0.0,0.0,61,0.00,OVC,,0.00,0.0,WeatherDisplay:10.37,2013-02-13 10:56:00,
2013-02-13 06:01:00,29.5,17.7,29.83,SW,225,3.5,3.5,61,0.00,OVC,,0.00,0.0,WeatherDisplay:10.37,2013-02-13 11:01:00,
2013-02-13 06:06:00,29.5,17.7,29.83,SW,225,3.8,3.8,61,0.00,OVC,,0.00,0.0,WeatherDisplay:10.37,2013-02-13 11:06:00,
2013-02-13 06:11:00,29.5,18.1,29.80,SSW,202,3.5,3.5,62,0.00,OVC,,0.00,0.0,WeatherDisplay:10.37,2013-02-13 11:11:00,
2013-02-13 06:16:00,29.5,18.1,29.80,SSW,202,2.9,2.9,62,0.00,OVC,,0.00,0.0,WeatherDisplay:10.37,2013-02-13 11:16:00,
2013-02-13 06:21:00,29.5,18.1,29.80,SSW,202,3.5,3.5,62,0.00,OVC,,0.00,0.0,WeatherDisplay:10.37,2013-02-13 11:21:00,
2013-02-13 06:26:00,29.5,18.1,29.83,SSW,202,2.4,2.4,62,0.00,OVC,,0.00,0.0,WeatherDisplay:10.37,2013-02-13 11:26:00,
2013-02-13 06:31:00,29.5,18.1,29.83,SSW,202,2.3,2.3,62,0.00,OVC,,0.00,0.0,WeatherDisplay:10.37,2013-02-13 11:31:00,
2013-02-13 06:36:00,29.5,18.1,29.83,SSW,202,0.0,0.0,62,0.00,OVC,,0.00,0.0,WeatherDisplay:10.37,2013-02-13 11:36:00,
2013-02-13 06:41:00,29.3,17.9,29.83,SW,225,3.5,3.5,62,0.00,OVC,,0.00,0.0,WeatherDisplay:10.37,2013-02-13 11:41:00,
2013-02-13 06:46:00,29.3,17.9,29.83,SSW,202,4.0,4.0,62,0.00,OVC,,0.00,0.0,WeatherDisplay:10.37,2013-02-13 11:46:00,
2013-02-13 06:51:00,29.3,17.9,29.83,SSW,202,3.5,3.5,62,0.00,OVC,,0.00,0.0,WeatherDisplay:10.37,2013-02-13 11:51:00,
2013-02-13 06:56:00,29.3,17.9,29.83,SW,225,3.8,3.8,62,0.00,OVC,,0.00,0.0,WeatherDisplay:10.37,2013-02-13 11:56:00,
2013-02-13 07:01:00,29.5,18.1,29.83,SW,225,3.5,3.5,62,0.00,OVC,,0.00,0.0,WeatherDisplay:10.37,2013-02-13 12:01:00,
2013-02-13 07:06:00,29.5,18.1,29.83,WSW,248,0.0,0.0,62,0.00,OVC,,0.00,0.0,WeatherDisplay:10.37,2013-02-13 12:06:00,
2013-02-13 07:11:00,29.3,17.9,29.80,SW,225,3.8,3.8,62,0.00,OVC,,0.00,0.0,WeatherDisplay:10.37,2013-02-13 12:11:00,
2013-02-13 07:16:00,29.5,18.1,29.80,WSW,248,3.5,3.5,62,0.00,OVC,,0.00,0.0,WeatherDisplay:10.37,2013-02-13 12:16:00,
2013-02-13 07:21:00,29.5,18.1,29.80,WSW,248,0.0,0.0,62,0.00,OVC,,0.00,0.0,WeatherDisplay:10.37,2013-02-13 12:21:00,
2013-02-13 07:26:00,29.5,18.1,29.83,WSW,248,0.0,0.0,62,0.00,OVC,,0.00,0.0,WeatherDisplay:10.37,2013-02-13 12:26:00,
2013-02-13 07:31:00,29.5,18.1,29.83,WSW,248,0.0,0.0,62,0.00,OVC,,0.00,0.0,WeatherDisplay:10.37,2013-02-13 12:31:00,
2013-02-13 07:36:00,29.7,18.2,29.83,SSW,202,0.0,0.0,62,0.00,OVC,,0.00,0.0,WeatherDisplay:10.37,2013-02-13 12:36:00,
2013-02-13 07:41:00,29.7,18.2,29.83,SW,225,0.0,0.0,62,0.00,OVC,,0.00,0.0,WeatherDisplay:10.37,2013-02-13 12:41:00,
2013-02-13 07:46:00,29.8,18.4,29.83,SW,225,0.0,0.0,62,0.00,OVC,,0.00,0.0,WeatherDisplay:10.37,2013-02-13 12:46:00,
2013-02-13 07:51:00,30.0,18.2,29.83,SSW,202,0.0,0.0,61,0.00,OVC,,0.00,0.0,WeatherDisplay:10.37,2013-02-13 12:51:00,
2013-02-13 07:56:00,30.2,18.4,29.83,SSW,202,1.1,0.0,61,0.00,OVC,,0.00,0.0,WeatherDisplay:10.37,2013-02-13 12:56:00,
2013-02-13 08:01:00,30.2,18.4,29.83,SSW,202,2.2,0.0,61,0.00,OVC,,0.00,0.0,WeatherDisplay:10.37,2013-02-13 13:01:00,
2013-02-13 08:06:00,30.4,18.1,29.83,SSW,202,2.3,0.0,60,0.00,OVC,,0.00,0.0,WeatherDisplay:10.37,2013-02-13 13:06:00,
2013-02-13 08:11:00,30.7,18.5,29.83,SSW,202,0.0,0.0,60,0.00,OVC,,0.00,0.0,WeatherDisplay:10.37,2013-02-13 13:11:00,
2013-02-13 08:16:00,30.9,18.7,29.83,SSW,202,2.2,0.0,60,0.00,OVC,,0.00,0.0,WeatherDisplay:10.37,2013-02-13 13:16:00,
2013-02-13 08:21:00,30.9,18.7,29.83,SW,225,0.0,0.0,60,0.00,OVC,,0.00,0.0,WeatherDisplay:10.37,2013-02-13 13:21:00,
2013-02-13 08:26:00,31.1,18.0,29.83,SW,225,3.5,3.5,58,0.00,OVC,,0.00,0.0,WeatherDisplay:10.37,2013-02-13 13:26:00,
2013-02-13 08:31:00,31.5,17.1,29.83,SW,225,3.5,3.5,55,0.00,OVC,,0.00,0.0,WeatherDisplay:10.37,2013-02-13 13:31:00,
2013-02-13 08:36:00,31.6,17.3,29.83,SW,225,4.6,4.6,55,0.00,OVC,,0.00,0.0,WeatherDisplay:10.37,2013-02-13 13:36:00,
2013-02-13 08:41:00,31.8,17.5,29.83,WSW,248,4.7,4.7,55,0.00,OVC,,0.00,0.0,WeatherDisplay:10.37,2013-02-13 13:41:00,
2013-02-13 08:46:00,32.2,17.8,29.83,WSW,248,3.5,3.5,55,0.00,OVC,,0.00,0.0,WeatherDisplay:10.37,2013-02-13 13:46:00,
2013-02-13 08:51:00,32.4,18.0,29.83,WSW,248,3.5,3.5,55,0.00,OVC,,0.00,0.0,WeatherDisplay:10.37,2013-02-13 13:51:00,
2013-02-13 08:56:00,32.5,17.3,29.80,WSW,248,3.5,3.5,53,0.00,OVC,,0.00,0.0,WeatherDisplay:10.37,2013-02-13 13:56:00,
2013-02-13 09:01:00,32.7,17.5,29.80,WSW,248,4.6,4.6,53,0.00,OVC,,0.00,0.0,WeatherDisplay:10.37,2013-02-13 14:01:00,
2013-02-13 09:06:00,32.9,17.6,29.80,WSW,248,4.6,4.6,53,0.00,OVC,,0.00,0.0,WeatherDisplay:10.37,2013-02-13 14:06:00,
2013-02-13 09:11:00,33.1,17.8,29.80,West,270,5.6,5.6,53,0.00,OVC,,0.00,0.0,WeatherDisplay:10.37,2013-02-13 14:11:00,
2013-02-13 09:16:00,33.1,17.8,29.80,WSW,248,6.0,6.0,53,0.00,OVC,,0.00,0.0,WeatherDisplay:10.37,2013-02-13 14:16:00,
2013-02-13 09:21:00,33.3,18.0,29.80,WSW,248,6.9,6.9,53,0.00,OVC,,0.00,0.0,WeatherDisplay:10.37,2013-02-13 14:21:00,
2013-02-13 09:26:00,33.3,18.0,29.80,WSW,248,5.8,5.8,53,0.00,OVC,,0.00,0.0,WeatherDisplay:10.37,2013-02-13 14:26:00,
2013-02-13 09:31:00,33.3,18.0,29.80,WSW,248,6.9,6.9,53,0.00,OVC,,0.00,0.0,WeatherDisplay:10.37,2013-02-13 14:31:00,
2013-02-13 09:36:00,33.4,18.1,29.80,WSW,248,6.0,6.0,53,0.00,OVC,,0.00,0.0,WeatherDisplay:10.37,2013-02-13 14:36:00,
2013-02-13 09:41:00,33.4,18.1,29.80,WSW,248,4.6,4.6,53,0.00,OVC,,0.00,0.0,WeatherDisplay:10.37,2013-02-13 14:41:00,
2013-02-13 09:46:00,33.6,18.3,29.80,WSW,248,4.6,4.6,53,0.00,OVC,,0.00,0.0,WeatherDisplay:10.37,2013-02-13 14:46:00,
2013-02-13 09:51:00,33.8,18.0,29.80,WSW,248,6.9,6.9,52,0.00,OVC,,0.00,0.0,WeatherDisplay:10.37,2013-02-13 14:51:00,
2013-02-13 09:56:00,34.0,18.2,29.80,WSW,248,5.8,5.8,52,0.00,OVC,,0.00,0.0,WeatherDisplay:10.37,2013-02-13 14:56:00,
2013-02-13 10:01:00,34.0,18.2,29.80,WSW,248,6.0,6.0,52,0.00,OVC,,0.00,0.0,WeatherDisplay:10.37,2013-02-13 15:01:00,
2013-02-13 10:06:00,34.3,18.5,29.80,SW,225,5.8,5.8,52,0.00,OVC,,0.00,0.0,WeatherDisplay:10.37,2013-02-13 15:06:00,
2013-02-13 10:11:00,34.5,18.7,29.80,West,270,4.7,4.7,52,0.00,OVC,,0.00,0.0,WeatherDisplay:10.37,2013-02-13 15:11:00,
2013-02-13 10:16:00,35.1,19.2,29.80,WSW,248,4.3,4.3,52,0.00,OVC,,0.00,0.0,WeatherDisplay:10.37,2013-02-13 15:16:00,
2013-02-13 10:21:00,35.1,19.2,29.80,West,270,4.6,4.6,52,0.00,OVC,,0.00,0.0,WeatherDisplay:10.37,2013-02-13 15:21:00,
2013-02-13 10:26:00,35.1,19.2,29.80,West,270,5.8,5.8,52,0.00,OVC,,0.00,0.0,WeatherDisplay:10.37,2013-02-13 15:26:00,
2013-02-13 10:31:00,35.2,19.4,29.80,West,270,5.8,5.8,52,0.00,OVC,,0.00,0.0,WeatherDisplay:10.37,2013-02-13 15:31:00,
2013-02-13 10:36:00,35.1,19.2,29.80,West,270,5.9,5.9,52,0.00,OVC,,0.00,0.0,WeatherDisplay:10.37,2013-02-13 15:36:00,
2013-02-13 10:41:00,35.1,19.2,29.77,West,270,5.8,5.8,52,0.00,OVC,,0.00,0.0,WeatherDisplay:10.37,2013-02-13 15:41:00,
2013-02-13 10:46:00,35.4,19.5,29.77,West,270,5.8,5.8,52,0.00,OVC,,0.00,0.0,WeatherDisplay:10.37,2013-02-13 15:46:00,
2013-02-13 10:51:00,35.6,19.7,29.77,WSW,248,4.6,4.6,52,0.00,OVC,,0.00,0.0,WeatherDisplay:10.37,2013-02-13 15:51:00,
2013-02-13 10:56:00,35.6,19.7,29.77,WSW,248,5.8,5.8,52,0.00,OVC,,0.00,0.0,WeatherDisplay:10.37,2013-02-13 15:56:00,
2013-02-13 11:01:00,35.6,19.7,29.77,WSW,248,5.8,5.8,52,0.00,OVC,,0.00,0.0,WeatherDisplay:10.37,2013-02-13 16:01:00,
2013-02-13 11:06:00,35.6,19.7,29.77,WSW,248,5.8,5.8,52,0.00,OVC,,0.00,0.0,WeatherDisplay:10.37,2013-02-13 16:06:00,
2013-02-13 11:11:00,36.0,20.0,29.77,WNW,292,4.6,4.6,52,0.00,OVC,,0.00,0.0,WeatherDisplay:10.37,2013-02-13 16:11:00,
2013-02-13 11:16:00,36.1,20.2,29.77,West,270,5.8,5.8,52,0.00,OVC,,0.00,0.0,WeatherDisplay:10.37,2013-02-13 16:16:00,
2013-02-13 11:21:00,36.9,20.9,29.77,SW,225,4.6,4.6,52,0.00,OVC,,0.00,0.0,WeatherDisplay:10.37,2013-02-13 16:21:00,
2013-02-13 11:26:00,36.3,20.4,29.77,WSW,248,6.9,6.9,52,0.00,OVC,,0.00,0.0,WeatherDisplay:10.37,2013-02-13 16:26:00,
2013-02-13 11:31:00,37.4,20.9,29.77,West,270,3.5,0.0,51,0.00,OVC,,0.00,0.0,WeatherDisplay:10.37,2013-02-13 16:31:00,
2013-02-13 11:36:00,36.7,20.7,29.77,WNW,292,5.8,5.8,52,0.00,OVC,,0.00,0.0,WeatherDisplay:10.37,2013-02-13 16:36:00,
2013-02-13 11:41:00,37.2,21.2,29.77,WSW,248,4.6,4.6,52,0.00,OVC,,0.00,0.0,WeatherDisplay:10.37,2013-02-13 16:41:00,
2013-02-13 11:46:00,37.2,21.2,29.77,WSW,248,4.0,4.0,52,0.00,OVC,,0.00,0.0,WeatherDisplay:10.37,2013-02-13 16:46:00,
2013-02-13 11:51:00,37.4,20.9,29.77,WSW,248,3.5,3.5,51,0.00,OVC,,0.00,0.0,WeatherDisplay:10.37,2013-02-13 16:51:00,
2013-02-13 11:56:00,39.7,23.1,29.77,SSW,202,0.0,0.0,51,0.00,OVC,,0.00,0.0,WeatherDisplay:10.37,2013-02-13 16:56:00,
2013-02-13 12:01:00,38.7,22.1,29.77,WSW,248,3.5,3.5,51,0.00,OVC,,0.00,0.0,WeatherDisplay:10.37,2013-02-13 17:01:00,
2013-02-13 12:06:00,38.7,22.1,29.77,WSW,248,0.0,0.0,51,0.00,OVC,,0.00,0.0,WeatherDisplay:10.37,2013-02-13 17:06:00,
2013-02-13 12:11:00,39.9,23.2,29.74,WSW,248,1.4,0.0,51,0.00,OVC,,0.00,0.0,WeatherDisplay:10.37,2013-02-13 17:11:00,
2013-02-13 12:16:00,39.0,22.4,29.74,WSW,248,2.3,2.3,51,0.00,OVC,,0.00,0.0,WeatherDisplay:10.37,2013-02-13 17:16:00,
2013-02-13 12:21:00,39.2,22.6,29.74,SSW,202,2.3,0.0,51,0.00,OVC,,0.00,0.0,WeatherDisplay:10.37,2013-02-13 17:21:00,
2013-02-13 12:27:00,38.1,21.6,29.74,West,270,3.5,3.5,51,0.00,OVC,,0.00,0.0,WeatherDisplay:10.37,2013-02-13 17:27:00,
2013-02-13 12:32:00,37.9,21.4,29.74,SSW,202,3.5,3.5,51,0.00,OVC,,0.00,0.0,WeatherDisplay:10.37,2013-02-13 17:32:00,
2013-02-13 12:37:00,37.4,20.9,29.74,WSW,248,5.8,5.8,51,0.00,OVC,,0.00,0.0,WeatherDisplay:10.37,2013-02-13 17:37:00,
2013-02-13 12:42:00,38.3,21.7,29.74,WSW,248,1.1,0.0,51,0.00,OVC,,0.00,0.0,WeatherDisplay:10.37,2013-02-13 17:42:00,
2013-02-13 12:47:00,40.3,23.6,29.74,ESE,112,2.3,2.3,51,0.00,OVC,,0.00,0.0,WeatherDisplay:10.37,2013-02-13 17:47:00,
2013-02-13 12:52:00,42.6,25.7,29.74,SE,135,1.1,0.0,51,0.00,OVC,,0.00,0.0,WeatherDisplay:10.37,2013-02-13 17:52:00,
2013-02-13 12:57:00,43.7,26.3,29.74,East,90,0.0,0.0,50,0.00,OVC,,0.00,0.0,WeatherDisplay:10.37,2013-02-13 17:57:00,
2013-02-13 13:02:00,43.2,25.8,29.74,SW,225,2.3,2.3,50,0.00,OVC,,0.00,0.0,WeatherDisplay:10.37,2013-02-13 18:02:00,
2013-02-13 13:07:00,43.9,26.4,29.74,East,90,2.3,2.3,50,0.00,OVC,,0.00,0.0,WeatherDisplay:10.37,2013-02-13 18:07:00,
2013-02-13 13:12:00,41.7,24.9,29.74,WSW,248,5.8,5.8,51,0.00,OVC,,0.00,0.0,WeatherDisplay:10.37,2013-02-13 18:12:00,
2013-02-13 13:17:00,39.7,23.1,29.74,WSW,248,6.9,6.9,51,0.00,OVC,,0.00,0.0,WeatherDisplay:10.37,2013-02-13 18:17:00,
2013-02-13 13:22:00,39.4,22.7,29.74,WSW,248,5.8,5.8,51,0.00,OVC,,0.00,0.0,WeatherDisplay:10.37,2013-02-13 18:22:00,
2013-02-13 13:27:00,38.8,22.2,29.74,WSW,248,8.1,8.1,51,0.00,OVC,,0.00,0.0,WeatherDisplay:10.37,2013-02-13 18:27:00,
2013-02-13 13:32:00,40.3,23.6,29.74,WSW,248,0.0,0.0,51,0.00,OVC,,0.00,0.0,WeatherDisplay:10.37,2013-02-13 18:32:00,
2013-02-13 13:37:00,46.8,28.6,29.74,NE,45,1.1,0.0,49,0.00,OVC,,0.00,0.0,WeatherDisplay:10.37,2013-02-13 18:37:00,
2013-02-13 13:42:00,48.0,29.7,29.71,SSW,202,0.0,0.0,49,0.00,OVC,,0.00,0.0,WeatherDisplay:10.37,2013-02-13 18:42:00,
2013-02-13 13:47:00,48.4,30.1,29.71,SSW,202,2.4,4.0,49,0.00,OVC,,0.00,0.0,WeatherDisplay:10.37,2013-02-13 18:47:00,
2013-02-13 13:52:00,47.5,29.3,29.71,South,180,2.3,2.3,49,0.00,OVC,,0.00,0.0,WeatherDisplay:10.37,2013-02-13 18:52:00,
2013-02-13 13:57:00,49.6,31.2,29.68,SSW,202,1.6,0.0,49,0.00,OVC,,0.00,0.0,WeatherDisplay:10.37,2013-02-13 18:57:00,
2013-02-13 14:02:00,47.5,29.3,29.68,ESE,112,4.6,4.6,49,0.00,BKN,,0.00,0.0,WeatherDisplay:10.37,2013-02-13 19:02:00,
2013-02-13 14:07:00,48.4,30.1,29.68,ESE,112,4.6,4.6,49,0.00,BKN,,0.00,0.0,WeatherDisplay:10.37,2013-02-13 19:07:00,
2013-02-13 14:12:00,49.8,31.4,29.71,SE,135,1.1,0.0,49,0.00,BKN,,0.00,0.0,WeatherDisplay:10.37,2013-02-13 19:12:00,
2013-02-13 14:17:00,47.8,29.6,29.71,ESE,112,1.1,0.0,49,0.00,BKN,,0.00,0.0,WeatherDisplay:10.37,2013-02-13 19:17:00,
2013-02-13 14:22:00,46.4,28.3,29.71,WSW,248,3.5,3.5,49,0.00,BKN,,0.00,0.0,WeatherDisplay:10.37,2013-02-13 19:22:00,
2013-02-13 14:27:00,48.6,30.2,29.71,SSW,202,2.4,2.4,49,0.00,BKN,,0.00,0.0,WeatherDisplay:10.37,2013-02-13 19:27:00,
2013-02-13 14:32:00,47.7,29.4,29.71,West,270,1.1,0.0,49,0.00,BKN,,0.00,0.0,WeatherDisplay:10.37,2013-02-13 19:32:00,
2013-02-13 14:37:00,46.4,28.3,29.71,SW,225,3.5,3.5,49,0.00,BKN,,0.00,0.0,WeatherDisplay:10.37,2013-02-13 19:37:00,
2013-02-13 14:42:00,47.5,29.3,29.71,WSW,248,0.0,0.0,49,0.00,BKN,,0.00,0.0,WeatherDisplay:10.37,2013-02-13 19:42:00,
2013-02-13 14:47:00,48.6,30.2,29.71,ESE,112,4.6,4.6,49,0.00,BKN,,0.00,0.0,WeatherDisplay:10.37,2013-02-13 19:47:00,
2013-02-13 14:52:00,48.4,30.1,29.71,SE,135,3.5,3.5,49,0.00,BKN,,0.00,0.0,WeatherDisplay:10.37,2013-02-13 19:52:00,
2013-02-13 14:57:00,47.7,29.4,29.71,SSE,158,2.3,2.3,49,0.00,BKN,,0.00,0.0,WeatherDisplay:10.37,2013-02-13 19:57:00,
2013-02-13 15:02:00,49.1,30.7,29.71,SE,135,1.1,0.0,49,0.00,SCT,,0.00,0.0,WeatherDisplay:10.37,2013-02-13 20:02:00,
2013-02-13 15:07:00,49.5,31.1,29.71,SE,135,1.1,1.1,49,0.00,SCT,,0.00,0.0,WeatherDisplay:10.37,2013-02-13 20:07:00,
2013-02-13 15:12:00,45.7,28.1,29.68,SSW,202,2.3,2.3,50,0.00,SCT,,0.00,0.0,WeatherDisplay:10.37,2013-02-13 20:12:00,
2013-02-13 15:17:00,45.0,27.4,29.68,ESE,112,4.6,4.6,50,0.00,SCT,,0.00,0.0,WeatherDisplay:10.37,2013-02-13 20:17:00,
2013-02-13 15:22:00,47.1,28.9,29.68,SE,135,1.1,1.1,49,0.00,SCT,,0.00,0.0,WeatherDisplay:10.37,2013-02-13 20:22:00,
2013-02-13 15:27:00,47.8,29.6,29.71,SSE,158,0.0,0.0,49,0.00,SCT,,0.00,0.0,WeatherDisplay:10.37,2013-02-13 20:27:00,
2013-02-13 15:32:00,49.1,30.7,29.71,ESE,112,2.4,2.4,49,0.00,SCT,,0.00,0.0,WeatherDisplay:10.37,2013-02-13 20:32:00,
2013-02-13 15:37:00,48.9,30.6,29.71,ENE,68,3.8,3.8,49,0.00,SCT,,0.00,0.0,WeatherDisplay:10.37,2013-02-13 20:37:00,
2013-02-13 15:42:00,45.9,28.3,29.71,SE,135,2.3,2.3,50,0.00,SCT,,0.00,0.0,WeatherDisplay:10.37,2013-02-13 20:42:00,
2013-02-13 15:47:00,43.2,25.8,29.71,ENE,68,3.5,3.5,50,0.00,SCT,,0.00,0.0,WeatherDisplay:10.37,2013-02-13 20:47:00,
2013-02-13 15:52:00,42.1,25.2,29.71,ESE,112,3.1,3.1,51,0.00,SCT,,0.00,0.0,WeatherDisplay:10.37,2013-02-13 20:52:00,
2013-02-13 15:57:00,44.6,27.1,29.71,ENE,68,2.3,2.3,50,0.00,SCT,,0.00,0.0,WeatherDisplay:10.37,2013-02-13 20:57:00,
2013-02-13 16:02:00,48.2,29.9,29.71,ENE,68,2.3,0.0,49,0.00,BKN,,0.00,0.0,WeatherDisplay:10.37,2013-02-13 21:02:00,
2013-02-13 16:07:00,47.7,29.4,29.71,ESE,112,3.5,3.5,49,0.00,BKN,,0.00,0.0,WeatherDisplay:10.37,2013-02-13 21:07:00,
2013-02-13 16:12:00,45.1,27.6,29.71,ENE,68,3.5,3.5,50,0.00,BKN,,0.00,0.0,WeatherDisplay:10.37,2013-02-13 21:12:00,
2013-02-13 16:17:00,44.6,27.1,29.71,ENE,68,3.3,3.3,50,0.00,BKN,,0.00,0.0,WeatherDisplay:10.37,2013-02-13 21:17:00,
2013-02-13 16:22:00,45.1,27.6,29.71,ENE,68,2.9,0.0,50,0.00,BKN,,0.00,0.0,WeatherDisplay:10.37,2013-02-13 21:22:00,
2013-02-13 16:27:00,44.4,26.9,29.68,ENE,68,2.4,2.4,50,0.00,BKN,,0.00,0.0,WeatherDisplay:10.37,2013-02-13 21:27:00,
2013-02-13 16:32:00,44.8,27.3,29.68,ENE,68,2.3,2.3,50,0.00,BKN,,0.00,0.0,WeatherDisplay:10.37,2013-02-13 21:32:00,
2013-02-13 16:37:00,43.9,26.4,29.68,ENE,68,3.5,3.5,50,0.00,BKN,,0.00,0.0,WeatherDisplay:10.37,2013-02-13 21:37:00,
2013-02-13 16:42:00,41.7,24.9,29.65,ENE,68,3.5,3.5,51,0.00,BKN,,0.00,0.0,WeatherDisplay:10.37,2013-02-13 21:42:00,
2013-02-13 16:47:00,41.7,24.9,29.65,ENE,68,2.9,2.9,51,0.00,BKN,,0.00,0.0,WeatherDisplay:10.37,2013-02-13 21:47:00,
2013-02-13 16:52:00,40.3,23.6,29.65,ENE,68,5.4,5.4,51,0.00,BKN,,0.00,0.0,WeatherDisplay:10.37,2013-02-13 21:52:00,
2013-02-13 16:57:00,37.6,21.1,29.68,NNE,22,6.2,6.2,51,0.00,BKN,,0.00,0.0,WeatherDisplay:10.37,2013-02-13 21:57:00,
2013-02-13 17:02:00,35.8,19.9,29.68,NNE,22,5.8,5.8,52,0.00,BKN,,0.00,0.0,WeatherDisplay:10.37,2013-02-13 22:02:00,
2013-02-13 17:07:00,35.4,19.5,29.68,NNE,22,5.8,5.8,52,0.00,BKN,,0.00,0.0,WeatherDisplay:10.37,2013-02-13 22:07:00,
2013-02-13 17:12:00,34.5,18.7,29.71,NNE,22,6.4,6.4,52,0.00,BKN,,0.00,0.0,WeatherDisplay:10.37,2013-02-13 22:12:00,
2013-02-13 17:17:00,34.3,18.5,29.71,NNE,22,5.8,5.8,52,0.00,BKN,,0.00,0.0,WeatherDisplay:10.37,2013-02-13 22:17:00,
2013-02-13 17:22:00,34.0,18.2,29.71,NNE,22,5.8,5.8,52,0.00,BKN,,0.00,0.0,WeatherDisplay:10.37,2013-02-13 22:22:00,
2013-02-13 17:27:00,33.6,18.3,29.71,NE,45,5.8,5.8,53,0.00,BKN,,0.00,0.0,WeatherDisplay:10.37,2013-02-13 22:27:00,
2013-02-13 17:32:00,33.3,18.0,29.71,NE,45,4.6,4.6,53,0.00,BKN,,0.00,0.0,WeatherDisplay:10.37,2013-02-13 22:32:00,
2013-02-13 17:37:00,32.9,17.6,29.71,NE,45,3.5,3.5,53,0.00,BKN,,0.00,0.0,WeatherDisplay:10.37,2013-02-13 22:37:00,
2013-02-13 17:42:00,32.5,17.3,29.68,NE,45,3.5,3.5,53,0.00,BKN,,0.00,0.0,WeatherDisplay:10.37,2013-02-13 22:42:00,
2013-02-13 17:47:00,32.5,17.3,29.68,NE,45,2.9,2.9,53,0.00,BKN,,0.00,0.0,WeatherDisplay:10.37,2013-02-13 22:47:00,
2013-02-13 17:52:00,32.2,16.9,29.68,NE,45,2.3,2.4,53,0.00,BKN,,0.00,0.0,WeatherDisplay:10.37,2013-02-13 22:52:00,
2013-02-13 17:57:00,32.2,16.9,29.71,NE,45,0.0,0.0,53,0.00,BKN,,0.00,0.0,WeatherDisplay:10.37,2013-02-13 22:57:00,
2013-02-13 18:02:00,31.6,16.4,29.71,NNE,22,0.0,0.0,53,0.00,BKN,,0.00,0.0,WeatherDisplay:10.37,2013-02-13 23:02:00,
2013-02-13 18:07:00,31.3,16.1,29.71,NNE,22,2.0,0.0,53,0.00,BKN,,0.00,0.0,WeatherDisplay:10.37,2013-02-13 23:07:00,
2013-02-13 18:12:00,31.3,16.1,29.71,NNE,22,0.0,0.0,53,0.00,BKN,,0.00,0.0,WeatherDisplay:10.37,2013-02-13 23:12:00,
2013-02-13 18:17:00,30.9,15.8,29.71,NNE,22,1.1,0.0,53,0.00,BKN,,0.00,0.0,WeatherDisplay:10.37,2013-02-13 23:17:00,
2013-02-13 18:22:00,30.7,15.6,29.71,North,0,0.0,0.0,53,0.00,BKN,,0.00,0.0,WeatherDisplay:10.37,2013-02-13 23:22:00,
2013-02-13 18:27:00,30.6,15.4,29.71,North,0,0.0,0.0,53,0.00,BKN,,0.00,0.0,WeatherDisplay:10.37,2013-02-13 23:27:00,
2013-02-13 18:32:00,30.2,15.1,29.71,NNE,22,0.0,0.0,53,0.00,BKN,,0.00,0.0,WeatherDisplay:10.37,2013-02-13 23:32:00,
2013-02-13 18:37:00,30.0,14.9,29.71,NNE,22,2.3,2.3,53,0.00,BKN,,0.00,0.0,WeatherDisplay:10.37,2013-02-13 23:37:00,
2013-02-13 18:42:00,29.8,14.8,29.71,North,0,1.4,1.4,53,0.00,BKN,,0.00,0.0,WeatherDisplay:10.37,2013-02-13 23:42:00,
2013-02-13 18:47:00,29.5,14.4,29.71,North,0,0.0,0.0,53,0.00,BKN,,0.00,0.0,WeatherDisplay:10.37,2013-02-13 23:47:00,
2013-02-13 18:52:00,29.5,14.4,29.71,North,0,1.1,0.0,53,0.00,BKN,,0.00,0.0,WeatherDisplay:10.37,2013-02-13 23:52:00,
2013-02-13 18:57:00,29.3,14.3,29.71,North,0,0.0,0.0,53,0.00,BKN,,0.00,0.0,WeatherDisplay:10.37,2013-02-13 23:57:00,
2013-02-13 19:03:00,29.3,14.3,29.71,North,0,0.0,0.0,53,0.00,BKN,,0.00,0.0,WeatherDisplay:10.37,2013-02-14 00:03:00,
2013-02-13 19:08:00,29.5,14.4,29.71,North,0,0.0,0.0,53,0.00,BKN,,0.00,0.0,WeatherDisplay:10.37,2013-02-14 00:08:00,
2013-02-13 19:13:00,29.5,14.4,29.71,NNW,338,0.0,0.0,53,0.00,BKN,,0.00,0.0,WeatherDisplay:10.37,2013-02-14 00:13:00,
2013-02-13 19:18:00,29.5,14.4,29.71,NNW,338,0.0,0.0,53,0.00,BKN,,0.00,0.0,WeatherDisplay:10.37,2013-02-14 00:18:00,
2013-02-13 19:23:00,29.5,14.4,29.71,NNW,338,0.0,0.0,53,0.00,BKN,,0.00,0.0,WeatherDisplay:10.37,2013-02-14 00:23:00,
2013-02-13 19:28:00,29.3,14.3,29.71,NNW,338,0.0,0.0,53,0.00,BKN,,0.00,0.0,WeatherDisplay:10.37,2013-02-14 00:28:00,
2013-02-13 19:33:00,28.8,13.8,29.71,NNW,338,0.0,0.0,53,0.00,BKN,,0.00,0.0,WeatherDisplay:10.37,2013-02-14 00:33:00,
2013-02-13 19:38:00,28.6,13.6,29.71,NNW,338,0.0,0.0,53,0.00,BKN,,0.00,0.0,WeatherDisplay:10.37,2013-02-14 00:38:00,
2013-02-13 19:43:00,28.6,13.6,29.71,NNW,338,0.0,0.0,53,0.00,BKN,,0.00,0.0,WeatherDisplay:10.37,2013-02-14 00:43:00,
2013-02-13 19:48:00,28.2,13.3,29.71,NNW,338,0.0,0.0,53,0.00,BKN,,0.00,0.0,WeatherDisplay:10.37,2013-02-14 00:48:00,
2013-02-13 19:53:00,27.9,12.9,29.71,NNW,338,0.0,0.0,53,0.00,BKN,,0.00,0.0,WeatherDisplay:10.37,2013-02-14 00:53:00,
2013-02-13 19:58:00,27.0,12.1,29.71,NNW,338,0.0,0.0,53,0.00,BKN,,0.00,0.0,WeatherDisplay:10.37,2013-02-14 00:58:00,
2013-02-13 20:03:00,26.2,11.8,29.71,NNW,338,0.0,0.0,54,0.00,SCT,,0.00,0.0,WeatherDisplay:10.37,2013-02-14 01:03:00,
2013-02-13 20:08:00,26.2,11.8,29.71,NNW,338,0.0,0.0,54,0.00,SCT,,0.00,0.0,WeatherDisplay:10.37,2013-02-14 01:08:00,
2013-02-13 20:13:00,26.2,11.8,29.71,NNW,338,0.0,0.0,54,0.00,SCT,,0.00,0.0,WeatherDisplay:10.37,2013-02-14 01:13:00,
2013-02-13 20:18:00,26.1,11.7,29.71,NNW,338,0.0,0.0,54,0.00,SCT,,0.00,0.0,WeatherDisplay:10.37,2013-02-14 01:18:00,
2013-02-13 20:23:00,26.1,11.7,29.71,NNW,338,0.0,0.0,54,0.00,SCT,,0.00,0.0,WeatherDisplay:10.37,2013-02-14 01:23:00,
2013-02-13 20:28:00,26.1,11.7,29.71,NNW,338,0.0,0.0,54,0.00,SCT,,0.00,0.0,WeatherDisplay:10.37,2013-02-14 01:28:00,
2013-02-13 20:33:00,26.2,11.8,29.71,NNW,338,0.0,0.0,54,0.00,SCT,,0.00,0.0,WeatherDisplay:10.37,2013-02-14 01:33:00,
2013-02-13 20:38:00,26.2,11.8,29.71,NNW,338,0.0,0.0,54,0.00,SCT,,0.00,0.0,WeatherDisplay:10.37,2013-02-14 01:38:00,
2013-02-13 20:43:00,26.2,11.8,29.71,NNW,338,0.0,0.0,54,0.00,SCT,,0.00,0.0,WeatherDisplay:10.37,2013-02-14 01:43:00,
2013-02-13 20:48:00,26.2,11.8,29.71,NNW,338,0.0,0.0,54,0.00,SCT,,0.00,0.0,WeatherDisplay:10.37,2013-02-14 01:48:00,
2013-02-13 20:53:00,26.1,11.7,29.71,NNW,338,0.0,0.0,54,0.00,SCT,,0.00,0.0,WeatherDisplay:10.37,2013-02-14 01:53:00,
2013-02-13 20:58:00,25.7,11.3,29.71,NNW,338,0.0,0.0,54,0.00,SCT,,0.00,0.0,WeatherDisplay:10.37,2013-02-14 01:58:00,
2013-02-13 21:03:00,25.3,11.0,29.71,NNW,338,0.0,0.0,54,0.00,SCT,,0.00,0.0,WeatherDisplay:10.37,2013-02-14 02:03:00,
2013-02-13 21:08:00,25.5,11.2,29.71,NNW,338,0.0,0.0,54,0.00,SCT,,0.00,0.0,WeatherDisplay:10.37,2013-02-14 02:08:00,
2013-02-13 21:13:00,25.9,12.3,29.74,NNW,338,0.0,0.0,56,0.00,SCT,,0.00,0.0,WeatherDisplay:10.37,2013-02-14 02:13:00,
2013-02-13 21:18:00,25.5,12.0,29.74,NNW,338,0.0,0.0,56,0.00,SCT,,0.00,0.0,WeatherDisplay:10.37,2013-02-14 02:18:00,
2013-02-13 21:23:00,24.8,11.7,29.74,NNW,338,0.0,0.0,57,0.00,SCT,,0.00,0.0,WeatherDisplay:10.37,2013-02-14 02:23:00,
2013-02-13 21:28:00,25.2,11.6,29.71,NNW,338,0.0,0.0,56,0.00,SCT,,0.00,0.0,WeatherDisplay:10.37,2013-02-14 02:28:00,
2013-02-13 21:33:00,24.6,11.5,29.71,NNW,338,0.0,0.0,57,0.00,SCT,,0.00,0.0,WeatherDisplay:10.37,2013-02-14 02:33:00,
2013-02-13 21:38:00,24.8,12.5,29.71,NW,315,0.0,0.0,59,0.00,SCT,,0.00,0.0,WeatherDisplay:10.37,2013-02-14 02:38:00,
2013-02-13 21:43:00,24.6,12.3,29.71,NW,315,0.0,0.0,59,0.00,SCT,,0.00,0.0,WeatherDisplay:10.37,2013-02-14 02:43:00,
2013-02-13 21:48:00,24.3,12.0,29.71,WNW,292,0.0,0.0,59,0.00,SCT,,0.00,0.0,WeatherDisplay:10.37,2013-02-14 02:48:00,
2013-02-13 21:53:00,24.3,13.1,29.71,WNW,292,0.0,0.0,62,0.00,SCT,,0.00,0.0,WeatherDisplay:10.37,2013-02-14 02:53:00,
2013-02-13 21:58:00,24.4,13.3,29.74,WNW,292,0.0,0.0,62,0.00,SCT,,0.00,0.0,WeatherDisplay:10.37,2013-02-14 02:58:00,
2013-02-13 22:03:00,24.3,13.1,29.74,WNW,292,0.0,0.0,62,0.00,CLR,,0.00,0.0,WeatherDisplay:10.37,2013-02-14 03:03:00,
2013-02-13 22:08:00,24.6,13.4,29.74,WNW,292,0.0,0.0,62,0.00,CLR,,0.00,0.0,WeatherDisplay:10.37,2013-02-14 03:08:00,
2013-02-13 22:13:00,24.8,13.6,29.74,WNW,292,0.0,0.0,62,0.00,CLR,,0.00,0.0,WeatherDisplay:10.37,2013-02-14 03:13:00,
2013-02-13 22:18:00,24.8,14.0,29.74,WNW,292,0.0,0.0,63,0.00,CLR,,0.00,0.0,WeatherDisplay:10.37,2013-02-14 03:18:00,
2013-02-13 22:23:00,24.4,13.6,29.74,WNW,292,0.0,0.0,63,0.00,CLR,,0.00,0.0,WeatherDisplay:10.37,2013-02-14 03:23:00,
2013-02-13 22:28:00,25.3,15.9,29.74,WNW,292,0.0,0.0,67,0.00,CLR,,0.00,0.0,WeatherDisplay:10.37,2013-02-14 03:28:00,
2013-02-13 22:33:00,25.7,17.3,29.74,WNW,292,0.0,0.0,70,0.00,CLR,,0.00,0.0,WeatherDisplay:10.37,2013-02-14 03:33:00,
2013-02-13 22:38:00,25.5,17.1,29.74,WNW,292,0.0,0.0,70,0.00,CLR,,0.00,0.0,WeatherDisplay:10.37,2013-02-14 03:38:00,
2013-02-13 22:44:00,25.3,15.9,29.74,WNW,292,0.0,0.0,67,0.00,CLR,,0.00,0.0,WeatherDisplay:10.37,2013-02-14 03:44:00,
2013-02-13 22:49:00,25.3,16.2,29.74,WNW,292,0.0,0.0,68,0.00,CLR,,0.00,0.0,WeatherDisplay:10.37,2013-02-14 03:49:00,
2013-02-13 22:54:00,25.3,15.9,29.74,WNW,292,0.0,0.0,67,0.00,CLR,,0.00,0.0,WeatherDisplay:10.37,2013-02-14 03:54:00,
2013-02-13 22:59:00,25.2,15.7,29.74,WNW,292,0.0,0.0,67,0.00,CLR,,0.00,0.0,WeatherDisplay:10.37,2013-02-14 03:59:00,
2013-02-13 23:04:00,25.2,16.1,29.74,WNW,292,1.1,0.0,68,0.00,CLR,,0.00,0.0,WeatherDisplay:10.37,2013-02-14 04:04:00,
2013-02-13 23:09:00,25.3,16.6,29.74,WNW,292,0.0,0.0,69,0.00,CLR,,0.00,0.0,WeatherDisplay:10.37,2013-02-14 04:09:00,
2013-02-13 23:14:00,25.3,16.9,29.74,WNW,292,0.0,0.0,70,0.00,CLR,,0.00,0.0,WeatherDisplay:10.37,2013-02-14 04:14:00,
2013-02-13 23:19:00,25.2,17.1,29.74,WNW,292,0.0,0.0,71,0.00,CLR,,0.00,0.0,WeatherDisplay:10.37,2013-02-14 04:19:00,
2013-02-13 23:24:00,24.4,15.4,29.74,WNW,292,0.0,0.0,68,0.00,CLR,,0.00,0.0,WeatherDisplay:10.37,2013-02-14 04:24:00,
2013-02-13 23:29:00,24.6,16.6,29.74,WNW,292,2.3,0.0,71,0.00,CLR,,0.00,0.0,WeatherDisplay:10.37,2013-02-14 04:29:00,
2013-02-13 23:34:00,24.8,17.1,29.74,WNW,292,0.0,0.0,72,0.00,CLR,,0.00,0.0,WeatherDisplay:10.37,2013-02-14 04:34:00,
2013-02-13 23:39:00,25.0,17.2,29.74,WNW,292,3.3,3.3,72,0.00,CLR,,0.00,0.0,WeatherDisplay:10.37,2013-02-14 04:39:00,
2013-02-13 23:44:00,25.2,17.4,29.74,WNW,292,3.5,3.5,72,0.00,CLR,,0.00,0.0,WeatherDisplay:10.37,2013-02-14 04:44:00,
2013-02-13 23:49:00,25.0,17.2,29.74,WNW,292,0.0,0.0,72,0.00,CLR,,0.00,0.0,WeatherDisplay:10.37,2013-02-14 04:49:00,
2013-02-13 23:54:00,24.6,16.9,29.74,WNW,292,0.0,0.0,72,0.00,CLR,,0.00,0.0,WeatherDisplay:10.37,2013-02-14 04:54:00,
2013-02-13 23:59:00,24.4,16.7,29.74,West,270,0.0,0.0,72,0.00,CLR,,0.00,0.0,WeatherDisplay:10.37,2013-02-14 04:59:00,